Regional Weather Roundup
Issued by NWS

Home | Current Version | Previous Version | Graphics & Text | Print | Product List | Glossary On
Versions: 1 2 3 4 5 6 7 8 9 10 11 12 13 14 15 16 17 18 19 20 21 22 23 24 25 26 27
000
ASUS45 KBOU 201407
RWRCO

WEATHER ROUNDUP FOR COLORADO
NATIONAL WEATHER SERVICE DENVER/BOULDER CO
700 AM MST FRI JAN 20 2017

NOTE: "FAIR" INDICATES FEW OR NO CLOUDS BELOW 12000 FEET WITH NO
SIGNIFICANT WEATHER AND/OR OBSTRUCTIONS TO VISIBILITY.

COZ001>005-013-030-031-201500-
...NORTHWEST COLORADO...

CITY           SKY/WX    TMP DP  RH WIND       PRES   REMARKS
CRAIG          FLURRIES  27  23  85 W5        29.57R WCI  22
HAYDEN         NOT AVBL
MEEKER         LGT SNOW  24  23  96 SW7       29.56R FOG     WCI  16
MOUNT WERNER   NOT AVBL
STEAMBOAT SPGS CLOUDY    22  21  95 CALM      29.54S
WALDEN           N/A     21  18  86 CALM      29.51S
$$

COZ006>008-011-201500-
...WEST CENTRAL VALLEYS...

CITY           SKY/WX    TMP DP  RH WIND       PRES   REMARKS
GRAND JUNCTION LGT SNOW  31  31 100 CALM      29.60R FOG
MONTROSE       CLOUDY    31  27  85 E7        29.61R WCI  24
EAGLE          CLOUDY    25  25 100 CALM      29.56S FOG
RIFLE          LGT SNOW  30  30 100 CALM      29.58R FOG
DELTA          CLOUDY    33  33  99 CALM      29.61R
NUCLA          FLURRIES  32  30  93 CALM      29.67R
$$

COZ017>023-064>068-201500-
...SOUTHWEST COLORADO...

CITY           SKY/WX    TMP DP  RH WIND       PRES   REMARKS
DURANGO        LGT SNOW  25  23  92 SW6       29.66R FOG     WCI  18
CORTEZ         CLOUDY    30  27  88 SW3       29.68R
PAGOSA SPRINGS LGT SNOW  24  23  96 CALM      29.65R
TELLURIDE      CLOUDY    21  18  88 CALM      29.61R
WOLF CREEK PAS CLOUDY     7   5  92 S20G29    29.58R WCI -13
$$

COZ009-010-012-014-032>034-037-058>063-201500-
...CENTRAL COLORADO...

CITY           SKY/WX    TMP DP  RH WIND       PRES   REMARKS
ASPEN          LGT SNOW  25  24  96 NW3       29.52R FOG
BUENA VISTA    CLOUDY    18  15  87 CALM      29.49S
COPPER MTN     LGT SNOW  19  14  79 MISG      29.49S
BERTHOUD PASS  NOT AVBL
COTTONWOOD PAS LGT SNOW  25  21  86 NW6       29.48S WCI  18
GUNNISON       FLURRIES  11   9  92 N5        29.59R WCI   3
KREMMLING      CLOUDY    19  14  79 CALM      29.56S
LEADVILLE      CLOUDY    17  14  88 NE5       29.47F FOG     WCI  10
MONARCH PASS   CLOUDY    12   9  85 MISG      29.57F
SALIDA         CLOUDY    30  19  64 SW7G20    29.57S WCI  23
SUNLIGHT       SNOW      18  16  93 SW9G17    29.56S VSB 1/2 WCI   6
WILKERSON PASS CLOUDY   N/A N/A N/A NW10G16   29.49S
$$

COZ069>075-201500-
...SAN LUIS VALLEY/SANGRE DE CRISTO MOUNTAINS...

CITY           SKY/WX    TMP DP  RH WIND       PRES   REMARKS
ALAMOSA        CLOUDY    18  17  96 SE5       29.56S WCI  11
LA VETA PASS   CLOUDY    18  14  86 NE24G39   29.49R WCI   0
SAGUACHE       LGT SNOW  21  19  93 CALM      29.55S
$$

COZ035-036-038>040-201500-
...NORTHERN COLORADO FRONT RANGE...

CITY           SKY/WX    TMP DP  RH WIND       PRES   REMARKS
DENVER INTL AP CLOUDY    33  24  69 SE8       29.46R WCI  26
DMNS CITY PARK   N/A     38  27  62 E13G21    29.45S
AURORA         CLOUDY    36  26  66 S5        29.47R
FRONT RANGE AP CLOUDY    37  23  56 E9        29.47
ERIE MUNI ARPT CLOUDY    32  27  83 S5        29.46S WCI  27
BOULDER MUN AP CLOUDY    34  27  75 CALM      29.46R
CENTENNIAL     LGT SNOW  33  30  88 NE8       29.46R FOG     WCI  26
BROOMFIELD     CLOUDY    34  25  69 NW7       29.46R WCI  28
FORT COLLINS   FAIR      36  23  60 CALM      29.48R
LONGMONT       CLOUDY    34  28  79 NW3       29.48S
$$

COZ041-046-047-076>085-087-088-201500-
...PIKES PEAK/PALMER DIVIDE AND SOUTHERN FOOTHILLS...

CITY           SKY/WX    TMP DP  RH WIND       PRES   REMARKS
COLO. SPRINGS  CLOUDY    34  28  79 NE10      29.46R WCI  26
A. F. ACADEMY  CLOUDY    32  27  82 N7        29.44S WCI  25
SCHRIEVER AFB  NOT AVBL
ELLICOTT       LGT SNOW N/A N/A N/A NE15      29.44F
FALCON         CLOUDY    31  29  94 N9        29.46S WCI  23
FORT CARSON    NOT AVBL
LIMON          CLOUDY    30  26  85 N3        29.47S
MONUMENT HILL  LGT SNOW  28  28 100 NE3       29.47F
TRINIDAD       FAIR      28  21  75 W17       29.47S WCI  16
$$

COZ042>045-048>051-090-091-201500-
...NORTHEAST COLORADO...

CITY           SKY/WX    TMP DP  RH WIND       PRES   REMARKS
GREELEY ARPT   FAIR      29  27  92 CALM      29.48R
AKRON          CLOUDY    28  23  81 W9        29.45R WCI  19
BURLINGTON     CLOUDY    32  27  81 N10       29.44F WCI  24
WRAY           NOT AVBL
STERLING       CLOUDY    27  25  93 S3        29.47R
HOLYOKE        FAIR      32  27  80 NE6       29.44F WCI  26
FORT MORGAN    CLOUDY    32  26  77 NW6       29.47R WCI  26
$$

COZ086-089-092>099-201500-
...SOUTHEAST COLORADO...

CITY           SKY/WX    TMP DP  RH WIND       PRES   REMARKS
PUEBLO         CLOUDY    39  32  76 NE6       29.47R
LA JUNTA       MOCLDY    29  26  89 W3        29.45R
LAMAR          CLOUDY    30  28  92 NW3       29.44R FOG
SPRINGFIELD      N/A     31  30  96 SW7       29.44S WCI  24
$$




USA.gov is the U.S. government's official web portal to all federal, state and local government web resources and services.